Location: Chippewa Lake
(41.0698°N, 81.9010°W)
Time: 20:00:59
(UTC+00:00)

Cosmos 304 Rocket - Pass Details

Date: 09 May 2021
Orbit: 678 x 688 km, 74.0° (Epoch: 17 June)

Event Time Altitude Azimuth Distance (km) Brightness Sun altitude
Exits shadow 09:01:59 19° 236° (WSW) 1,611 5.0 -12.7°
Maximum altitude 09:04:58 38° 295° (WNW) 1,036 4.5 -12.3°
Drops below altitude 10° 09:09:26 10° 4° (N) 2,133 6.9 -11.6°
Sets 09:11:54 0° 13° (NNE) 3,054 7.9 -11.2°
